"startDT [UTC]","vpos","CH4 [ppm]","stdev(CH4) [ppm]","CO2 [ppm]","stdev(CO2) [ppm]","H2O_reported [%]","stdev(H2O_reported)","CavityPressure [torr]","CavityTemp [C]","OutletValve","CH4_dry [ppm]","CO2_dry [ppm]","DasTemp [C]","EtalonTemp [C]","WarmBoxTemp [C]","MPVPosition","T_ECpre [C]","T_EC1 [C]","T_EC2 [C]","p_inlet [hPa]","p_in [hPa]","p_out [hPa]","T_inlet [C]","RH_inlet [%]","dwpt_inlet [C]","T_vent [C]","RH_vent [%]","dwpt_vent [C]","flow_vent [l min-1]","flow_inlet [l min-1]","dwpt_sample [C]","T_room [C]"
2015-08-03 00:00:00,0.0,1.94061,0.00023,383.862,0.087,1.1395,0.0027,139.999,45.000,34468.88135,1.96315,389.312,34.068,45.068,45.000,0.00,0.10,-272.73,-272.79,-8,1002,-7,24.9,28.2,5.2,24.6,29.2,5.5,5.73,1.91,4.3,28.7
2015-08-03 00:01:00,0.0,1.94172,0.00027,383.718,0.290,1.1216,0.0055,139.997,45.000,34469.02527,1.96390,389.102,34.068,45.068,45.000,0.00,0.10,-272.72,-272.78,-8,1003,-7,24.9,27.8,5.0,24.7,28.7,5.3,5.73,1.91,4.3,28.6
2015-08-03 00:02:00,0.0,1.94318,0.00060,383.766,0.136,1.1272,0.0043,140.001,45.000,34468.38805,1.96543,389.157,34.063,45.068,45.000,0.00,0.10,-272.73,-272.79,-8,1003,-7,24.9,28.0,5.1,24.7,28.8,5.3,5.73,1.92,4.3,28.6
2015-08-03 00:03:00,0.0,1.94291,0.00044,383.791,0.149,1.1321,0.0018,139.999,45.000,34467.06011,1.96541,389.209,34.063,45.068,45.000,0.00,0.10,-272.72,-272.80,-8,1003,-7,24.9,28.0,5.2,24.7,28.9,5.4,5.73,1.92,4.2,28.6
2015-08-03 00:04:00,0.0,1.94295,0.00060,383.849,0.088,1.1276,0.0019,140.001,45.000,34466.85967,1.96527,389.242,34.061,45.068,45.000,0.00,0.10,-272.72,-272.79,-8,1003,-7,24.9,27.9,5.1,24.7,28.8,5.3,5.73,1.91,4.3,28.6
2015-08-03 00:05:00,0.0,1.94462,0.00051,383.438,0.171,1.1284,0.0024,139.997,45.000,34465.22844,1.96691,388.846,34.056,45.067,45.000,0.00,0.10,-272.72,-272.78,-8,1002,-7,24.9,27.9,5.1,24.7,28.8,5.3,5.73,1.90,4.3,28.6
2015-08-03 00:06:00,0.0,1.94643,0.00065,383.704,0.126,1.1366,0.0030,139.998,45.000,34465.81489,1.96891,389.140,34.060,45.068,45.000,0.00,0.10,-272.73,-272.79,-8,1003,-7,24.9,28.2,5.2,24.7,29.0,5.4,5.73,1.89,4.3,28.6
2015-08-03 00:07:00,0.0,1.94745,0.00057,383.842,0.164,1.1360,0.0014,140.001,45.000,34465.65229,1.97000,389.285,34.062,45.068,45.000,0.00,0.10,-272.72,-272.79,-8,1003,-7,24.9,28.2,5.2,24.7,29.0,5.4,5.73,1.88,4.2,28.6
2015-08-03 00:08:00,0.0,1.94754,0.00054,383.633,0.180,1.1357,0.0026,140.002,45.000,34463.06005,1.97008,389.069,34.057,45.068,45.000,0.00,0.10,-272.72,-272.79,-8,1002,-7,24.9,28.2,5.2,24.7,29.0,5.4,5.73,1.87,4.3,28.5
2015-08-03 00:09:00,0.0,1.94800,0.00087,383.917,0.209,1.1353,0.0028,140.000,45.000,34462.88231,1.97050,389.344,34.060,45.067,45.000,0.00,0.10,-272.73,-272.79,-8,1003,-7,24.9,28.1,5.2,24.7,29.0,5.4,5.73,1.87,4.3,28.6
2015-08-03 00:10:00,0.0,1.95147,0.00082,383.940,0.144,1.1221,0.0048,139.996,45.000,34460.34236,1.97373,389.320,34.063,45.067,45.000,0.00,0.10,-272.73,-272.79,-8,1002,-7,24.9,27.7,5.0,24.7,28.7,5.3,5.73,1.87,4.3,28.6
2015-08-03 00:11:00,0.0,1.95251,0.00044,383.643,0.254,1.1288,0.0051,140.001,45.000,34463.16806,1.97490,389.048,34.067,45.067,45.000,0.00,0.10,-272.73,-272.78,-8,1003,-7,24.9,28.0,5.1,24.7,28.8,5.3,5.73,1.88,4.3,28.6
2015-08-03 00:12:00,0.0,1.95264,0.00042,383.662,0.151,1.1414,0.0027,140.000,45.000,34463.80374,1.97540,389.129,34.073,45.067,45.000,0.00,0.10,-272.72,-272.79,-8,1003,-7,24.9,28.3,5.3,24.7,29.1,5.5,5.73,1.89,4.3,28.6
2015-08-03 00:13:00,0.0,1.95398,0.00071,383.607,0.334,1.1440,0.0031,140.001,45.000,34463.85271,1.97674,389.071,34.075,45.067,45.000,0.00,0.10,-272.73,-272.79,-8,1002,-7,24.9,28.4,5.3,24.7,29.3,5.5,5.73,1.90,4.3,28.6
2015-08-03 00:14:00,0.0,1.95451,0.00075,383.917,0.124,1.1482,0.0031,140.000,45.000,34465.85023,1.97744,389.427,34.068,45.067,45.000,0.00,0.10,-272.72,-272.79,-8,1003,-7,24.9,28.5,5.4,24.7,29.3,5.6,5.73,1.91,4.3,28.6
2015-08-03 00:15:00,0.0,1.95364,0.00060,383.529,0.193,1.1444,0.0017,140.000,45.000,34466.30997,1.97649,389.015,34.068,45.067,45.000,0.00,0.10,-272.72,-272.78,-8,1003,-7,24.9,28.4,5.4,24.7,29.3,5.6,5.73,1.91,4.3,28.5
2015-08-03 00:16:00,0.0,1.95348,0.00097,383.822,0.161,1.1453,0.0036,140.002,45.000,34469.19836,1.97630,389.296,34.082,45.067,45.000,0.00,0.10,-272.73,-272.79,-8,1003,-7,24.9,28.3,5.3,24.7,29.3,5.6,5.73,1.92,4.3,28.5
2015-08-03 00:17:00,0.0,1.95353,0.00065,384.055,0.114,1.1300,0.0052,139.999,45.000,34467.88386,1.97607,389.470,34.065,45.067,45.000,0.00,0.10,-272.73,-272.79,-8,1003,-7,24.9,27.9,5.1,24.7,28.9,5.4,5.73,1.92,4.3,28.6
2015-08-03 00:18:00,0.0,1.95553,0.00089,384.221,0.088,1.1192,0.0036,139.999,45.000,34466.84593,1.97777,389.584,34.070,45.067,45.000,0.00,0.10,-272.72,-272.79,-8,1003,-7,24.9,27.6,4.9,24.6,28.6,5.2,5.73,1.91,4.3,28.6
2015-08-03 00:19:00,0.0,1.95610,0.00087,384.261,0.075,1.1098,0.0022,140.000,45.000,34466.57638,1.97822,389.574,34.074,45.067,45.000,0.00,0.10,-272.72,-272.79,-8,1003,-7,24.9,27.4,4.8,24.7,28.3,5.1,5.73,1.90,4.3,28.5
2015-08-03 00:20:00,0.0,1.95653,0.00125,384.105,0.138,1.1107,0.0031,139.999,45.000,34466.34012,1.97879,389.433,34.068,45.067,45.000,0.00,0.10,-272.73,-272.79,-8,1003,-7,24.9,27.5,4.9,24.7,28.3,5.1,5.73,1.90,4.3,28.5
2015-08-03 00:21:00,0.0,1.95334,0.00098,384.112,0.071,1.1175,0.0026,140.001,45.000,34466.15007,1.97570,389.459,34.066,45.068,45.000,0.00,0.10,-272.73,-272.79,-8,1003,-7,24.9,27.6,4.9,24.7,28.5,5.2,5.73,1.88,4.3,28.6
2015-08-03 00:22:00,0.0,1.95387,0.00261,384.213,0.099,1.1116,0.0035,139.998,45.000,34463.92286,1.97571,389.538,34.083,45.068,45.000,0.00,0.10,-272.73,-272.79,-8,1003,-7,24.9,27.4,4.8,24.7,28.4,5.1,5.73,1.87,4.3,28.6
2015-08-03 00:23:00,0.0,1.95765,0.00090,384.317,0.076,1.1018,0.0038,140.000,45.000,34469.26125,1.97973,389.596,34.084,45.067,45.000,0.00,0.10,-272.73,-272.79,-8,1002,-7,24.9,27.2,4.7,24.7,28.1,5.0,5.73,1.87,4.3,28.6
2015-08-03 00:24:00,0.0,1.95647,0.00069,383.994,0.235,1.1096,0.0036,140.002,45.000,34468.66248,1.97869,389.310,34.100,45.067,45.000,0.00,0.10,-272.72,-272.79,-8,1003,-7,24.9,27.5,4.9,24.7,28.3,5.0,5.73,1.87,4.3,28.6
2015-08-03 00:25:00,0.0,1.95689,0.00077,384.145,0.137,1.1149,0.0030,139.998,45.000,34467.65816,1.97900,389.485,34.097,45.067,45.000,0.00,0.10,-272.72,-272.79,-8,1003,-7,24.9,27.5,4.9,24.7,28.4,5.1,5.73,1.88,4.3,28.6
2015-08-03 00:26:00,0.0,1.95758,0.00042,383.825,0.228,1.1102,0.0045,140.000,45.000,34467.22515,1.97981,389.136,34.099,45.067,45.000,0.00,0.10,-272.73,-272.79,-8,1003,-7,24.9,27.5,4.9,24.7,28.3,5.1,5.73,1.88,4.3,28.6
2015-08-03 00:27:00,0.0,1.95875,0.00071,384.186,0.177,1.1219,0.0030,140.001,45.000,34469.55012,1.98100,389.554,34.090,45.067,45.000,0.00,0.10,-272.73,-272.79,-8,1003,-7,24.9,27.8,5.0,24.7,28.6,5.2,5.73,1.89,4.3,28.6
2015-08-03 00:28:00,0.0,1.96176,0.00071,384.183,0.143,1.1131,0.0031,139.998,45.000,34467.11965,1.98395,389.524,34.083,45.067,45.000,0.00,0.10,-272.72,-272.78,-8,1003,-7,24.9,27.5,4.9,24.7,28.4,5.1,5.73,1.90,4.3,28.6
2015-08-03 00:29:00,0.0,1.95574,0.00272,384.025,0.136,1.1271,0.0060,140.003,45.000,34467.22134,1.97874,389.420,34.097,45.067,45.000,0.00,0.10,-272.72,-272.79,-8,1002,-7,24.9,28.0,5.1,24.7,28.7,5.3,5.73,1.91,4.3,28.6
2015-08-03 00:30:00,0.0,1.95348,0.00068,384.031,0.097,1.1258,0.0072,140.001,45.000,34468.68106,1.97585,389.434,34.105,45.068,45.000,0.00,0.10,-272.72,-272.79,-8,1003,-7,24.9,27.7,5.0,24.7,28.8,5.3,5.73,1.92,4.3,28.7
2015-08-03 00:31:00,0.0,1.95346,0.00043,383.944,0.219,1.1153,0.0026,140.000,45.000,34468.04736,1.97574,389.277,34.115,45.067,45.000,0.00,0.10,-272.72,-272.79,-8,1003,-7,24.9,27.6,4.9,24.7,28.4,5.1,5.73,1.92,4.3,28.7
2015-08-03 00:32:00,0.0,1.95457,0.00056,384.025,0.202,1.1164,0.0034,140.002,45.000,34467.94512,1.97671,389.375,34.121,45.067,45.000,0.00,0.10,-272.72,-272.79,-8,1003,-7,24.9,27.6,4.9,24.7,28.5,5.2,5.73,1.92,4.3,28.6
2015-08-03 00:33:00,0.0,1.95678,0.00045,384.266,0.121,1.1103,0.0030,140.000,45.000,34466.17463,1.97886,389.582,34.122,45.067,45.000,0.00,0.10,-272.73,-272.80,-8,1003,-7,24.9,27.4,4.8,24.7,28.3,5.1,5.73,1.91,4.3,28.7
2015-08-03 00:34:00,0.0,1.95763,0.00043,384.056,0.299,1.1061,0.0024,140.001,45.000,34467.45056,1.97968,389.369,34.121,45.067,45.000,0.00,0.10,-272.72,-272.79,-8,1003,-7,24.9,27.3,4.8,24.7,28.2,5.0,5.73,1.90,4.3,28.6
2015-08-03 00:35:00,0.0,1.95567,0.00115,383.390,0.322,1.1210,0.0069,140.001,45.000,34468.00695,1.97815,388.732,34.107,45.067,45.000,0.00,0.10,-272.72,-272.79,-8,1003,-7,24.9,27.8,5.1,24.7,28.5,5.2,5.73,1.89,4.3,28.7
2015-08-03 00:36:00,0.0,1.95422,0.00118,384.052,0.114,1.1341,0.0041,140.001,45.000,34468.34515,1.97701,389.490,34.108,45.067,45.000,0.00,0.10,-272.73,-272.79,-8,1003,-7,24.9,28.0,5.2,24.7,28.9,5.4,5.73,1.88,4.3,28.6
2015-08-03 00:37:00,0.0,1.95175,0.00069,383.615,0.098,1.1189,0.0038,139.998,45.000,34469.68454,1.97414,388.976,34.124,45.067,45.000,0.00,0.10,-272.73,-272.79,-8,1003,-7,24.9,27.6,5.0,24.7,28.6,5.2,5.73,1.87,4.3,28.7
2015-08-03 00:38:00,0.0,1.94998,0.00084,384.007,0.135,1.1199,0.0035,140.000,45.000,34468.87106,1.97223,389.358,34.119,45.067,45.000,0.00,0.10,-272.72,-272.78,-8,1003,-7,24.9,27.6,5.0,24.7,28.5,5.2,5.73,1.87,4.3,28.7
2015-08-03 00:39:00,0.0,1.95209,0.00100,383.871,0.150,1.1067,0.0047,140.002,45.000,34470.20402,1.97419,389.166,34.105,45.067,45.000,0.00,0.10,-272.72,-272.79,-8,1003,-7,25.0,27.3,4.8,24.7,28.2,5.0,5.73,1.87,4.3,28.7
2015-08-03 00:40:00,0.0,1.94923,0.00083,383.904,0.088,1.1214,0.0044,140.003,45.000,34472.26039,1.97155,389.279,34.081,45.068,45.000,0.00,0.10,-272.73,-272.79,-8,1003,-7,25.0,27.7,5.0,24.7,28.5,5.2,5.73,1.88,4.3,28.6
2015-08-03 00:41:00,0.0,1.94847,0.00104,384.100,0.141,1.1072,0.0038,140.001,45.000,34471.34790,1.97060,389.394,34.099,45.068,45.000,0.00,0.10,-272.72,-272.78,-8,1003,-7,24.9,27.3,4.8,24.7,28.3,5.1,5.73,1.88,4.3,28.6
2015-08-03 00:42:00,0.0,1.94876,0.00091,384.137,0.149,1.0966,0.0044,139.999,45.000,34469.35311,1.97044,389.383,34.089,45.068,45.000,0.00,0.10,-272.72,-272.78,-8,1003,-7,24.9,27.0,4.6,24.7,27.9,4.9,5.73,1.90,4.3,28.6
2015-08-03 00:43:00,0.0,1.95007,0.00049,383.801,0.214,1.0901,0.0024,139.997,45.000,34470.49060,1.97166,389.031,34.068,45.068,45.000,0.00,0.10,-272.73,-272.79,-8,1003,-7,25.0,26.9,4.6,24.7,27.7,4.8,5.73,1.90,4.3,28.6
2015-08-03 00:44:00,0.0,1.95082,0.00046,383.823,0.149,1.1075,0.0066,140.001,45.000,34471.91499,1.97286,389.117,34.072,45.068,45.000,0.00,0.10,-272.72,-272.79,-8,1003,-7,25.0,27.4,4.9,24.7,28.1,5.0,5.73,1.91,4.3,28.6
2015-08-03 00:45:00,0.0,1.95083,0.00063,383.699,0.184,1.1202,0.0025,140.002,45.000,34473.33328,1.97312,389.053,34.083,45.068,45.000,0.00,0.10,-272.72,-272.79,-8,1003,-7,25.0,27.7,5.0,24.7,28.5,5.2,5.73,1.92,4.3,28.6
2015-08-03 00:46:00,0.0,1.94829,0.00104,384.000,0.074,1.1180,0.0065,140.003,45.000,34473.92591,1.97057,389.348,34.090,45.068,45.000,0.00,0.10,-272.73,-272.79,-8,1003,-7,24.9,27.5,4.9,24.7,28.5,5.2,5.73,1.92,4.3,28.7
2015-08-03 00:47:00,0.0,1.94798,0.00179,384.166,0.157,1.0875,0.0052,140.002,45.000,34473.35302,1.96968,389.376,34.101,45.068,45.000,0.00,0.10,-272.73,-272.79,-8,1003,-7,25.0,26.6,4.5,24.7,27.7,4.8,5.73,1.90,4.3,28.7
2015-08-03 00:48:00,0.0,1.94927,0.00102,384.103,0.216,1.0766,0.0019,140.002,45.000,34471.16261,1.97057,389.266,34.120,45.067,45.000,0.00,0.10,-272.72,-272.78,-8,1003,-7,24.9,26.5,4.4,24.7,27.4,4.6,5.73,1.91,4.3,28.6
2015-08-03 00:49:00,0.0,1.95047,0.00054,383.655,0.145,1.0921,0.0085,140.001,45.000,34472.31578,1.97218,388.878,34.111,45.067,45.000,0.00,0.10,-272.72,-272.79,-8,1003,-7,24.9,27.0,4.7,24.7,27.7,4.8,5.73,1.89,4.3,28.7
2015-08-03 00:50:00,0.0,1.94879,0.00046,383.793,0.136,1.1173,0.0050,139.998,45.000,34471.16169,1.97104,389.125,34.112,45.067,45.000,0.00,0.10,-272.73,-272.79,-8,1003,-7,24.9,27.7,5.0,24.7,28.4,5.1,5.73,1.89,4.3,28.7
2015-08-03 00:51:00,0.0,1.94816,0.00074,383.994,0.202,1.1121,0.0044,139.998,45.000,34466.36615,1.97038,389.309,34.122,45.067,45.000,0.00,0.10,-272.73,-272.79,-8,1003,-7,24.9,27.4,4.9,24.7,28.3,5.1,5.73,1.88,4.3,28.6
2015-08-03 00:52:00,0.0,1.94683,0.00075,384.079,0.145,1.0948,0.0101,140.000,45.000,34466.22660,1.96861,389.334,34.122,45.067,45.000,0.00,0.10,-272.72,-272.78,-8,1003,-7,24.9,26.8,4.5,24.7,27.9,4.9,5.73,1.87,4.3,28.7
2015-08-03 00:53:00,0.0,1.94679,0.00060,384.316,0.116,1.0879,0.0030,139.997,45.000,34466.02690,1.96835,389.512,34.117,45.067,45.000,0.00,0.10,-272.73,-272.79,-8,1003,-7,25.0,26.8,4.5,24.7,27.6,4.7,5.73,1.87,4.3,28.7
2015-08-03 00:54:00,0.0,1.94515,0.00132,384.312,0.076,1.0796,0.0029,140.005,45.000,34468.43399,1.96670,389.483,34.111,45.067,45.000,0.00,0.10,-272.73,-272.80,-8,1003,-7,25.0,26.5,4.4,24.7,27.5,4.7,5.73,1.87,4.3,28.7
2015-08-03 00:55:00,0.0,1.94512,0.00099,384.134,0.135,1.0790,0.0046,140.001,45.000,34467.16619,1.96655,389.309,34.103,45.067,45.000,0.00,0.10,-272.72,-272.78,-8,1003,-7,25.0,26.6,4.4,24.7,27.4,4.6,5.73,1.88,4.3,28.6
2015-08-03 00:56:00,0.0,1.94227,0.00067,384.048,0.164,1.0933,0.0035,140.000,45.000,34466.35678,1.96401,389.264,34.073,45.067,45.000,0.00,0.10,-272.72,-272.78,-8,1003,-7,25.0,26.9,4.6,24.7,27.8,4.8,5.73,1.89,4.3,28.6
2015-08-03 00:57:00,0.0,1.94238,0.00093,384.008,0.115,1.0829,0.0042,140.000,45.000,34468.29148,1.96381,389.197,34.101,45.068,45.000,0.00,0.10,-272.73,-272.79,-8,1003,-7,25.0,26.6,4.5,24.7,27.5,4.7,5.73,1.90,4.3,28.6
2015-08-03 00:58:00,0.0,1.94469,0.00108,384.138,0.137,1.0847,0.0027,140.000,45.000,34469.88552,1.96600,389.326,34.106,45.068,45.000,0.00,0.10,-272.72,-272.79,-8,1003,-7,25.0,26.7,4.5,24.7,27.5,4.7,5.73,1.90,4.3,28.6
2015-08-03 00:59:00,0.0,1.94517,0.00030,383.872,0.153,1.0874,0.0044,139.998,45.000,34468.32274,1.96674,389.077,34.104,45.068,45.000,0.00,0.10,-272.72,-272.79,-9,1003,-7,25.0,26.8,4.6,24.7,27.6,4.8,5.73,1.91,4.3,28.6
2015-08-03 01:00:00,0.0,1.94235,0.00095,383.887,0.123,1.1018,0.0039,139.998,45.000,34468.07589,1.96425,389.143,34.104,45.068,45.000,0.00,0.10,-272.73,-272.79,-8,1003,-7,24.9,27.2,4.7,24.7,28.0,4.9,5.73,1.91,4.3,28.6
2015-08-03 01:01:00,0.0,1.94132,0.00145,384.122,0.074,1.0913,0.0062,140.001,45.000,34470.29833,1.96302,389.352,34.096,45.068,45.000,0.00,0.10,-272.73,-272.79,-8,1003,-7,25.0,26.8,4.5,24.7,27.8,4.9,5.73,1.91,4.3,28.7
2015-08-03 01:02:00,0.0,1.94109,0.00090,384.085,0.152,1.0773,0.0031,139.999,45.000,34471.10655,1.96249,389.234,34.087,45.067,45.000,0.00,0.10,-272.73,-272.78,-8,1003,-7,25.0,26.5,4.4,24.7,27.4,4.6,5.73,1.92,4.3,28.7
2015-08-03 01:03:00,0.0,1.93999,0.00116,384.089,0.212,1.0770,0.0036,140.003,45.000,34471.06839,1.96137,389.253,34.091,45.067,45.000,0.00,0.10,-272.73,-272.79,-8,1003,-7,25.0,26.4,4.3,24.7,27.3,4.6,5.73,1.90,4.3,28.6
2015-08-03 01:04:00,0.0,1.94037,0.00149,384.237,0.113,1.0649,0.0035,139.999,45.000,34468.09881,1.96125,389.326,34.084,45.067,45.000,0.00,0.10,-272.73,-272.79,-8,1003,-7,24.9,26.1,4.2,24.7,27.0,4.5,5.73,1.90,4.3,28.6
2015-08-03 01:05:00,0.0,1.94347,0.00104,384.217,0.165,1.0574,0.0054,140.000,45.000,34469.22821,1.96430,389.275,34.107,45.067,45.000,0.00,0.10,-272.72,-272.79,-8,1003,-7,25.0,26.0,4.1,24.7,26.7,4.3,5.73,1.88,4.3,28.6
2015-08-03 01:06:00,0.0,1.94383,0.00070,383.971,0.156,1.0735,0.0063,140.002,45.000,34465.70170,1.96500,389.092,34.115,45.067,45.000,0.00,0.10,-272.73,-272.78,-8,1003,-7,24.9,26.5,4.4,24.7,27.2,4.5,5.73,1.88,4.3,28.6
2015-08-03 01:07:00,0.0,1.94579,0.00042,384.038,0.125,1.0818,0.0051,139.997,45.000,34465.99536,1.96714,389.219,34.098,45.067,45.000,0.00,0.10,-272.73,-272.79,-8,1003,-7,25.0,26.6,4.4,24.7,27.5,4.7,5.73,1.87,4.3,28.7
2015-08-03 01:08:00,0.0,1.94602,0.00049,383.890,0.113,1.0828,0.0050,140.001,45.000,34466.35614,1.96750,389.071,34.096,45.067,45.000,0.00,0.10,-272.72,-272.79,-9,1003,-7,25.0,26.7,4.5,24.7,27.4,4.7,5.73,1.87,4.3,28.7
2015-08-03 01:09:00,0.0,1.94586,0.00044,383.511,0.150,1.1045,0.0052,139.998,45.000,34464.53403,1.96781,388.797,34.095,45.068,45.000,0.00,0.10,-272.72,-272.79,-8,1003,-7,25.0,27.3,4.8,24.7,28.0,4.9,5.73,1.87,4.3,28.7
2015-08-03 01:10:00,0.0,1.94556,0.00094,384.098,0.135,1.1121,0.0061,140.002,45.000,34466.58603,1.96760,389.404,34.075,45.068,45.000,0.00,0.10,-272.72,-272.79,-8,1003,-7,25.0,27.3,4.8,24.7,28.3,5.1,5.73,1.88,4.3,28.6
2015-08-03 01:11:00,0.0,1.94682,0.00077,384.004,0.104,1.0831,0.0054,139.998,45.000,34464.95945,1.96820,389.198,34.080,45.068,45.000,0.00,0.10,-272.72,-272.79,-8,1003,-7,25.0,26.6,4.5,24.7,27.6,4.7,5.73,1.88,4.3,28.7
2015-08-03 01:12:00,0.0,1.94780,0.00036,383.862,0.115,1.0906,0.0018,140.001,45.000,34465.43184,1.96942,389.080,34.066,45.068,45.000,0.00,0.10,-272.72,-272.78,-8,1003,-7,25.0,26.8,4.6,24.7,27.7,4.8,5.73,1.89,4.3,28.7
2015-08-03 01:13:00,0.0,1.94612,0.00117,384.075,0.156,1.0893,0.0036,140.000,45.000,34464.09817,1.96788,389.284,34.094,45.068,45.000,0.00,0.10,-272.73,-272.79,-8,1003,-7,25.0,26.7,4.5,24.7,27.7,4.8,5.73,1.90,4.3,28.7
2015-08-03 01:14:00,0.0,1.94600,0.00045,384.109,0.134,1.0728,0.0037,139.995,45.000,34462.54364,1.96729,389.238,34.090,45.068,45.000,0.00,0.10,-272.73,-272.79,-8,1003,-7,25.0,26.3,4.3,24.7,27.2,4.6,5.73,1.91,4.3,28.7
2015-08-03 01:15:00,0.0,1.94702,0.00117,384.303,0.054,1.0695,0.0042,140.001,45.000,34467.45833,1.96806,389.419,34.112,45.068,45.000,0.00,0.10,-272.72,-272.79,-8,1003,-7,25.0,26.2,4.2,24.7,27.1,4.5,5.73,1.92,4.3,28.7
2015-08-03 01:16:00,0.0,1.94962,0.00078,384.173,0.042,1.0625,0.0047,140.002,45.000,34466.24644,1.97059,389.250,34.110,45.067,45.000,0.00,0.10,-272.72,-272.79,-9,1003,-7,25.0,26.1,4.2,24.7,26.9,4.4,5.73,1.92,4.3,28.7
2015-08-03 01:17:00,0.0,1.95072,0.00143,384.302,0.054,1.0725,0.0051,139.999,45.000,34463.50635,1.97190,389.433,34.112,45.067,45.000,0.00,0.10,-272.73,-272.79,-8,1003,-7,25.0,26.3,4.3,24.7,27.2,4.6,5.73,1.91,4.3,28.7
2015-08-03 01:18:00,0.0,1.95119,0.00094,384.069,0.111,1.0762,0.0110,139.997,45.000,34463.34685,1.97267,389.222,34.114,45.067,45.000,0.00,0.10,-272.73,-272.79,-8,1002,-7,25.0,26.6,4.5,24.7,27.2,4.6,5.73,1.91,4.3,28.6
2015-08-03 01:19:00,0.0,1.94954,0.00065,384.013,0.131,1.0981,0.0017,140.000,45.000,34464.91919,1.97141,389.264,34.120,45.067,45.000,0.00,0.10,-272.73,-272.79,-8,1003,-7,25.0,27.0,4.7,24.7,27.8,4.9,5.73,1.90,4.3,28.6
2015-08-03 01:20:00,0.0,1.95203,0.00158,384.058,0.117,1.0772,0.0070,140.003,45.000,34468.19159,1.97320,389.212,34.120,45.067,45.000,0.00,0.10,-272.73,-272.79,-8,1003,-7,25.0,26.4,4.3,24.7,27.4,4.7,5.73,1.89,4.3,28.6
2015-08-03 01:21:00,0.0,1.95513,0.00034,383.902,0.150,1.0858,0.0075,140.000,45.000,34467.61191,1.97671,389.090,34.121,45.067,45.000,0.00,0.10,-272.72,-272.79,-8,1003,-7,25.0,26.8,4.6,24.7,27.5,4.7,5.73,1.88,4.3,28.6
2015-08-03 01:22:00,0.0,1.95523,0.00148,384.107,0.074,1.1035,0.0036,140.005,45.000,34468.84644,1.97712,389.386,34.115,45.067,45.000,0.00,0.10,-272.72,-272.78,-8,1003,-7,25.0,27.1,4.7,24.7,28.0,4.9,5.73,1.87,4.3,28.7
2015-08-03 01:23:00,0.0,1.95779,0.00154,384.168,0.072,1.0837,0.0062,139.996,45.000,34467.08720,1.97922,389.361,34.116,45.067,45.000,0.00,0.10,-272.72,-272.79,-8,1003,-7,25.0,26.6,4.5,24.7,27.6,4.7,5.73,1.87,4.3,28.7
2015-08-03 01:24:00,0.0,1.96088,0.00059,384.251,0.095,1.0847,0.0030,140.002,45.000,34466.54297,1.98259,389.440,34.123,45.067,45.000,0.00,0.10,-272.73,-272.79,-8,1003,-7,25.0,26.7,4.5,24.7,27.5,4.7,5.73,1.87,4.3,28.7
2015-08-03 01:25:00,0.0,1.95999,0.00066,384.171,0.094,1.0881,0.0028,140.001,45.000,34467.74689,1.98167,389.381,34.120,45.067,45.000,0.00,0.10,-272.72,-272.79,-9,1003,-7,25.0,26.8,4.6,24.7,27.6,4.8,5.73,1.87,4.3,28.7
2015-08-03 01:26:00,0.0,1.96013,0.00042,383.859,0.126,1.0943,0.0039,140.003,45.000,34468.08237,1.98201,389.094,34.121,45.067,45.000,0.00,0.10,-272.72,-272.79,-8,1003,-7,25.0,27.0,4.7,24.7,27.7,4.8,5.73,1.88,4.3,28.6
2015-08-03 01:27:00,0.0,1.96216,0.00046,383.942,0.127,1.1083,0.0033,139.998,45.000,34462.19193,1.98422,389.248,34.125,45.067,45.000,0.00,0.10,-272.73,-272.79,-8,1003,-7,25.0,27.3,4.8,24.7,28.1,5.0,5.73,1.89,4.3,28.6
2015-08-03 01:28:00,0.0,1.96111,0.00058,383.984,0.090,1.1078,0.0029,140.001,45.000,34463.11168,1.98329,389.281,34.125,45.067,45.000,0.00,0.10,-272.72,-272.79,-8,1003,-7,25.0,27.3,4.8,24.7,28.1,5.0,5.73,1.90,4.3,28.6
2015-08-03 01:29:00,0.0,1.96066,0.00061,384.065,0.073,1.1118,0.0031,139.999,45.000,34460.64220,1.98297,389.390,34.125,45.067,45.000,0.00,0.10,-272.72,-272.78,-8,1003,-7,25.0,27.4,4.9,24.7,28.2,5.1,5.73,1.91,4.3,28.6
2015-08-03 01:30:00,0.0,1.96215,0.00073,383.925,0.164,1.1054,0.0033,140.000,45.000,34463.69839,1.98418,389.220,34.125,45.067,45.000,0.00,0.10,-272.73,-272.80,-8,1003,-7,25.0,27.2,4.7,24.7,28.1,5.0,5.73,1.91,4.3,28.6
2015-08-03 01:31:00,0.0,1.96221,0.00046,384.078,0.127,1.1094,0.0026,140.000,45.000,34466.15372,1.98441,389.387,34.116,45.067,45.000,0.00,0.10,-272.73,-272.79,-8,1003,-7,25.0,27.3,4.8,24.7,28.1,5.0,5.73,1.91,4.3,28.6
2015-08-03 01:32:00,0.0,1.96452,0.00129,384.113,0.137,1.0991,0.0044,139.998,45.000,34464.75764,1.98635,389.370,34.121,45.068,45.000,0.00,0.10,-272.72,-272.78,-8,1003,-7,25.0,27.0,4.7,24.7,27.9,4.9,5.73,1.92,4.3,28.6
2015-08-03 01:33:00,0.0,1.96547,0.00036,383.925,0.159,1.0951,0.0022,140.003,45.000,34465.98361,1.98744,389.175,34.116,45.067,45.000,0.00,0.10,-272.73,-272.78,-8,1003,-7,25.0,26.9,4.6,24.7,27.8,4.9,5.73,1.91,4.3,28.6
2015-08-03 01:34:00,0.0,1.96590,0.00054,383.978,0.094,1.1001,0.0058,140.001,45.000,34464.40164,1.98787,389.229,34.111,45.068,45.000,0.00,0.10,-272.73,-272.79,-8,1003,-7,25.0,27.1,4.7,24.7,27.9,4.9,5.73,1.90,4.3,28.6
2015-08-03 01:35:00,0.0,1.96718,0.00057,384.008,0.087,1.1044,0.0021,139.996,45.000,34463.97081,1.98925,389.297,34.108,45.068,45.000,0.00,0.10,-272.73,-272.79,-8,1003,-7,25.0,27.1,4.7,24.7,28.0,5.0,5.73,1.89,4.3,28.7
2015-08-03 01:36:00,0.0,1.96894,0.00021,383.945,0.101,1.1031,0.0029,140.000,45.000,34464.71327,1.99105,389.228,34.114,45.068,45.000,0.00,0.10,-272.72,-272.79,-8,1003,-7,25.0,27.2,4.8,24.7,28.0,5.0,5.73,1.88,4.3,28.7
2015-08-03 01:37:00,0.0,1.96853,0.00048,383.931,0.099,1.1064,0.0019,140.000,45.000,34464.32569,1.99075,389.228,34.110,45.067,45.000,0.00,0.10,-272.73,-272.79,-8,1003,-7,25.0,27.3,4.8,24.7,28.1,5.0,5.73,1.88,4.3,28.7
2015-08-03 01:38:00,0.0,1.96945,0.00046,383.791,0.124,1.1125,0.0031,139.997,45.000,34465.26644,1.99177,389.109,34.111,45.068,45.000,0.00,0.10,-272.72,-272.79,-8,1003,-7,25.0,27.4,4.9,24.7,28.2,5.1,5.73,1.88,4.3,28.7
2015-08-03 01:39:00,0.0,1.96871,0.00116,383.964,0.070,1.1171,0.0024,140.001,45.000,34468.85484,1.99106,389.309,34.114,45.068,45.000,0.00,0.10,-272.72,-272.78,-8,1003,-7,25.0,27.5,4.9,24.7,28.3,5.2,5.73,1.87,4.3,28.6
2015-08-03 01:40:00,0.0,1.97135,0.00115,383.938,0.070,1.1017,0.0074,140.000,45.000,34470.60578,1.99338,389.217,34.124,45.068,45.000,0.00,0.10,-272.73,-272.79,-9,1003,-7,25.0,27.0,4.7,24.7,28.0,5.0,5.73,1.87,4.3,28.7
2015-08-03 01:41:00,0.0,1.97324,0.00058,383.908,0.115,1.0936,0.0024,139.999,45.000,34469.95028,1.99527,389.140,34.123,45.067,45.000,0.00,0.10,-272.73,-272.80,-8,1003,-7,25.0,26.9,4.6,24.7,27.7,4.8,5.73,1.88,4.3,28.7
2015-08-03 01:42:00,0.0,1.97302,0.00122,384.001,0.134,1.0953,0.0023,140.002,45.000,34468.58501,1.99490,389.238,34.120,45.067,45.000,0.00,0.10,-272.72,-272.79,-8,1003,-7,25.0,26.9,4.6,24.7,27.8,4.9,5.73,1.89,4.3,28.6
2015-08-03 01:43:00,0.0,1.97552,0.00108,383.907,0.095,1.0919,0.0044,139.997,45.000,34467.99907,1.99740,389.136,34.118,45.067,45.000,0.00,0.10,-272.72,-272.78,-8,1003,-7,25.0,26.8,4.6,24.7,27.7,4.8,5.73,1.90,4.3,28.7
2015-08-03 01:44:00,0.0,1.97656,0.00056,383.894,0.208,1.0933,0.0034,140.001,45.000,34470.52505,1.99860,389.115,34.122,45.067,45.000,0.00,0.10,-272.73,-272.79,-8,1003,-7,25.0,26.9,4.7,24.7,27.7,4.8,5.73,1.91,4.3,28.6
2015-08-03 01:45:00,0.0,1.97797,0.00064,383.989,0.065,1.0993,0.0025,140.000,45.000,34471.52600,2.00009,389.251,34.123,45.067,45.000,0.00,0.10,-272.72,-272.79,-8,1003,-7,25.0,27.1,4.7,24.7,27.9,4.9,5.73,1.91,4.3,28.6
2015-08-03 01:46:00,0.0,1.97768,0.00049,384.003,0.088,1.0950,0.0021,140.001,45.000,34471.33978,1.99976,389.244,34.116,45.067,45.000,0.00,0.10,-272.73,-272.79,-8,1003,-7,25.0,26.9,4.6,24.7,27.8,4.9,5.73,1.92,4.3,28.5
2015-08-03 01:47:00,0.0,1.97685,0.00078,383.752,0.138,1.0993,0.0028,140.000,45.000,34472.30637,1.99912,389.008,34.079,45.067,45.000,0.00,0.10,-272.73,-272.79,-9,1003,-7,25.0,27.0,4.7,24.7,27.9,4.9,5.73,1.91,4.3,28.6